SL-8 DEB *, 3045

Orbit data source: Space-Track

SL-8 DEB *, 3045 is space debris in LEO originally from a launch on Fri, 03 Sep 1965 UTC launched from the Tyuratam Missile And Space Complex (TTMTR). Debris objects in space refer to the collection of defunct objects orbiting the Earth. Examples of debris include non-operational satellites, rocket bodies, and fragments generated from explosions, collisions, or faulty payload assembly.

Loading next visibility...
Identifier
3045, 1965-070G
Orbit
LEO
Country
Flag of CISCIS
Related business
Manufacturer
Unknown
Mission
Spacecraft
Bus & Motor
Unknown
Mass
Unknown
Launch date (UTC)
1965-09-03 (61 years ago)
Launch vehicle
Unknown
Launch site
Tyuratam Missile And Space Complex (TTMTR)
Object type
Payload
Rocket body
Debris
Shape & HBR
Unknown shape, 0.1 m
Radar Cross Section
Small (<0.1 m²)

Expand to show TLE details & history
Last TLE update: 2 days ago

TLE from 2 days ago
0 SL-8 DEB *
1 03045U 65070G   26099.36293090  .00000209  00000-0  18558-2 0  9998
2 03045  55.4285  67.9382 0289723  60.1176  92.5718 12.44590809680367
Epoch: 2026-04-09T08:42Z
TLE epoch observation values (Epoch: 2026-04-09T08:42:37.229Z)
Latitude
19.59935°
Longitude
-94.46215°
Altitude
1,504.579 km
Speed
7.107 km/s
True Right ascension
15h 35m 13s
True Declination
19° 30' 04"
Sunlit
Object was in full shadow at epoch
Visualization orbit readout
Latitude
Unknown
Longitude
Unknown
Altitude
Unknown
Speed
Unknown
Apparent Right ascension
Unknown
Apparent Declination
Unknown
Sunlit
N/A
Visualization observer readout
Local Sidereal Time
17:44:52
Azimuth
Unknown
Elevation
Unknown
Doppler factor
Unknown
Orbital elements
Apogee altitude
1,714.986 km
Perigee altitude
1,259.237 km
Semi-major axis
7,865.248 km
Eccentricity
0.02897
Inclination
55.4285°
RAAN
67.9382°
Arg. of periapsis
60.1176°
True anomaly
95.88122°
Mean anomaly
92.5718°
Eccentric anomaly
94.22727°
Mean motion
3.11153 °/min
Orbital period
115.7 mins
BSTAR
0.0018558
Loading maneuver chart data...
Computing Atmospheric mass density...
Loading historical data...
Loading historical data...
Loading historical data...
Loading historical data...
Loading historical data...
Loading historical data...
Loading historical data...
Other satellites on launch #70 in the year 1965 (1965-09-03 UTC)

Documentation

Showing up to 5 results
|